Tracking 19638 objects as of 19-May-2019
HD Live streaming from Space Station
objects crossing your sky now

STRV 1B

Track STRV 1B now!
10-day predictions
STRV 1B is classified as:


NORAD ID: 23126
Int'l Code: 1994-034C
Perigee: 211.5 km
Apogee: 24,856.5 km
Inclination: 7.2 °
Period: 431.1 minutes
Semi major axis: 18905 km
RCS: 0.317 m2 (medium)
Launch date: June 17, 1994
Source: United Kingdom (UK)
Launch site: FRENCH GUIANA (FRGUI)
aabbcc
Your satellite tracking list
Your tracking list is empty




NASA's NSSDC Master Catalog

Two Line Element Set (TLE):
1 23126U 94034C   19138.95407574  .00015498  00000-0  81357-3 0  9991
2 23126   7.1919 350.0974 6518104  63.7578 347.8745  3.33992727254455
Source of the keplerian elements: AFSPC